{"data":{"norad_id":56784,"intl_designator":"2023-078T","name":"STARLINK-6354","alt_names":[],"object_type":"PAYLOAD","status":"ACTIVE","operator":null,"country":"US","launch_date":"2023-05-31","launch_site_code":"AFWTR","launch_vehicle":null,"mission":null,"orbit_class":"UNKNOWN","rcs_meters":null,"size_class":null,"mass_kg":null,"dimensions":null,"purposes":["comms"],"wikipedia_slug":null,"has_3d_model":false,"image_url":null,"decayed_at":null,"tle_current":{"epoch":"2026-09-20T22:00:03.000096Z","epoch_age_seconds":78941,"freshness":"FRESH","line1":"1 56784U 23078T   26263.91670139 -.00003086  00000+0 -19089-3 0  9993","line2":"2 56784  70.0010 192.1484 0003675 239.2634 295.4187 15.08518649  5670","mean_motion":15.08518649,"eccentricity":0.0003675,"inclination_deg":70.001,"raan_deg":192.1484,"arg_perigee_deg":239.2634,"mean_anomaly_deg":295.4187,"bstar":-0.00019089,"rev_number":567,"period_min":95.457885187868,"perigee_km":538.18312269546,"apogee_km":543.26848685697,"semimajor_km":6918.8628047762,"source":"CELESTRAK","updated_at":"2026-09-21T09:00:33.488484Z"}}}